Location: Newark
(17.1333°N, 61.8333°W)
Time: 06:37:19
(UTC+00:00)

Envisat - Pass Details

Date: 27 July 2019
Orbit: 764 x 766 km, 98.1° (Epoch: 23 August)

Event Time Altitude Azimuth Distance (km) Brightness Sun altitude
Rises 23:54:50 0° 210° (SSW) 3,221 6.3 -16.7°
Reaches altitude 10° 23:58:45 10° 241° (WSW) 2,297 5.9 -17.5°
Maximum altitude 00:00:34 12° 263° (W) 2,169 6.1 -17.9°
Drops below altitude 10° 00:02:23 10° 284° (WNW) 2,298 6.6 -18.3°
Sets 00:06:20 0° 315° (NW) 3,225 7.6 -19.1°
